Location: Rounton
(54.4000°N, 1.3500°W)
Time: 07:17:08
(UTC+00:00)

Altair - Pass Details

Date: 02 December 2021
Orbit: 1501 x 1683 km, 47.2° (Epoch: 24 January)

Event Time Altitude Azimuth Distance (km) Brightness Sun altitude
Rises 18:11:31 0° 250° (WSW) 4,726 11.6 -20.1°
Reaches altitude 10° 18:14:41 10° 246° (WSW) 3,721 10.6 -20.6°
Maximum altitude 18:23:40 55° 173° (S) 1,772 7.7 -21.9°
Enters shadow 18:28:16 30° 111° (ESE) 2,433 8.0 -22.5°
Drops below altitude 10° 18:32:30 10° 99° (E) 3,653 - -23.2°
Sets 18:35:34 0° 95° (E) 4,635 - -23.6°
